#timestamp,LO_Frequency,Hit,StdDev 
1624698015.7,286047001.7,N
1624698035.6,286047004.4,Y
1624698055.4,286047001.7,P
1624698075.2,286047004.4,P
1624698095.1,286047003.6,N
1624698096.0,286047003.6,N
1624698115.8,286047003.5,N
1624698135.6,286047005.9,Y
1624698155.5,286047001.5,P
1624698175.3,286047000.1,N
1624698195.2,286047002.6,N
1624698215.9,286047000.1,N
1624698235.7,286047002.7,N
1624698255.6,286047002.0,N
1624698275.4,286047002.0,N
1624698295.2,286047002.5,N
1624698315.1,286047002.1,N
1624698316.0,286047002.1,N
1624698335.8,286047002.4,N
1624698355.7,286047002.3,N
1624698375.5,286047002.6,N
1624698395.3,286047002.3,N
1624698415.2,286047002.0,N
1624698435.0,286047001.7,N
1624698435.9,286047001.7,N
1624698455.8,286047004.2,Y
1624698475.6,286047002.5,P
1624698495.4,286047002.1,P
1624698515.3,286047001.8,P
1624698535.1,286047004.4,Y
1624698555.8,286047000.1,P
1624698575.7,286047000.2,N
1624698595.5,286047000.1,N
1624698615.4,286046999.8,N
1624698635.2,286047000.0,N
1624698655.0,286047000.6,N
1624698655.9,286047000.6,N
1624698675.8,286047001.2,N
1624698695.6,286047001.2,N
1624698715.4,286047000.1,N
1624698735.3,286047000.5,N
1624698755.1,286046998.4,N
1624698775.8,286046999.9,N
1624698795.7,286047002.8,Y
1624698815.5,286047000.2,P
1624698835.4,286047000.9,P
1624698855.2,286047001.0,P
1624698875.0,286047001.2,Y
1624698875.9,286047001.2,P
1624698895.8,286047001.2,P
1624698915.6,286047001.2,P
1624698935.5,286047000.5,N
1624698955.3,286047000.8,N
1624698975.1,286047001.1,Y
1624698995.9,286046998.2,P
1624699015.7,286046998.1,N
1624699035.5,286046998.7,N
1624699055.4,286046999.5,N
1624699075.2,286046998.6,N
1624699095.1,286046998.5,N
1624699096.0,286046998.5,N
1624699115.8,286046998.2,N
1624699135.6,286047001.1,N
1624699155.5,286047000.7,N
1624699175.3,286046998.1,N
1624699195.1,286047000.4,N
1624699215.9,286047000.3,N
1624699235.7,286047000.5,N
1624699255.6,286047000.2,N
1624699275.4,286047000.9,N
1624699295.2,286046999.9,N
1624699315.1,286047000.3,N
1624699316.0,286047000.3,N
1624699335.8,286047000.1,N
1624699355.7,286047000.2,N
1624699375.5,286046999.7,N
1624699395.3,286047002.7,N
1624699415.2,286046999.9,N
1624699435.0,286047000.1,N
1624699435.9,286047000.1,N
1624699455.7,286047000.1,N
1624699475.6,286046999.9,N
1624699495.4,286047002.3,N
1624699515.3,286047000.0,N
1624699535.1,286047000.1,N
1624699555.8,286046999.8,N
1624699575.7,286047000.4,N
1624699595.5,286047000.7,N
1624699615.4,286047000.0,N
1624699635.2,286046999.9,N
1624699655.0,286046999.7,N
1624699655.9,286046999.7,N
1624699675.8,286047000.0,N
1624699695.6,286046999.8,N
1624699715.4,286047000.6,N
1624699735.3,286046999.8,N
1624699755.1,286047000.2,N
1624699775.9,286047000.3,N
1624699795.7,286047000.8,N
1624699815.5,286047000.6,N
1624699835.4,286047000.5,N
1624699855.2,286047000.4,N
1624699875.0,286046998.2,N
1624699875.9,286046998.2,N
1624699895.8,286046998.8,N
1624699915.6,286046998.9,N
1624699935.5,286046998.4,N
1624699955.3,286047000.6,N
1624699975.1,286047000.2,N
1624699995.9,286047000.0,N
1624700015.7,286047002.6,Y
1624700035.5,286047001.3,P
1624700055.4,286047001.7,N
1624700075.2,286047003.3,P
1624700095.1,286047003.0,N
1624700096.0,286047003.0,N
1624700115.8,286047003.4,N
1624700135.6,286047005.6,Y
1624700155.5,286047004.3,P
1624700175.3,286047002.4,N
1624700195.1,286047001.9,N
1624700215.9,286047002.3,N
1624700235.7,286047002.7,Y
1624700255.6,286046998.9,P
1624700275.4,286046998.7,N
1624700295.2,286046997.1,N
1624700315.1,286046995.2,N
1624700316.0,286046995.2,N
1624700335.8,286046997.4,N
1624700355.7,286046997.2,N
1624700375.5,286046999.1,N
1624700395.3,286046997.0,N
1624700415.2,286046997.8,N
1624700435.0,286046994.9,N
1624700435.9,286046994.9,N
1624700455.7,286046994.9,N
1624700475.6,286046997.9,N
1624700495.4,286046997.0,N
1624700515.3,286046997.8,N
1624700535.1,286046998.0,N
1624700536.0,286046998.0,N
1624700555.8,286046995.8,N
1624700575.7,286046995.8,N
1624700595.5,286046995.7,N
1624700615.4,286046993.5,Y
1624700635.2,286046997.0,P
1624700655.0,286046999.3,P
1624700655.9,286046999.3,N
1624700675.8,286046996.5,Y
1624700695.6,286046999.0,P
1624700715.5,286046998.7,P
1624700735.3,286046999.1,N
1624700755.1,286046997.1,Y
1624700775.9,286046999.1,P
1624700795.7,286046999.2,P
1624700815.6,286046996.7,P
1624700835.4,286046997.3,N
1624700855.2,286046997.8,N
1624700875.1,286046997.8,N
1624700876.0,286046997.8,N
1624700895.8,286046998.0,N
1624700915.7,286046995.1,Y
1624700935.5,286046997.3,P
1624700955.3,286046998.0,P
1624700975.2,286046995.0,P
1624700995.0,286046998.0,N
1624700995.9,286046998.0,N
1624701015.7,286046997.9,N
1624701035.6,286046997.9,N
1624701055.4,286046997.5,N
1624701075.3,286046998.0,N
1624701095.1,286046995.3,Y
1624701096.0,286046995.3,P
1624701115.8,286046998.3,N
1624701135.7,286047000.7,N
1624701155.5,286046998.2,N
1624701175.3,286047001.1,N
1624701195.2,286047000.0,N
1624701215.0,286046999.0,N
1624701215.9,286046999.0,N
1624701235.8,286046999.3,N
1624701255.6,286046998.7,N
1624701275.4,286046998.6,N
1624701295.3,286046998.8,N
1624701315.1,286046999.4,N
1624701335.8,286046998.1,N
1624701355.7,286047001.2,N
1624701375.5,286047000.3,N
1624701395.4,286046999.7,N
1624701415.2,286046999.8,N
1624701435.0,286047002.4,N
1624701435.9,286047002.4,N
1624701455.8,286047002.7,N
1624701475.6,286047001.4,N
1624701495.5,286047005.8,Y
1624701515.3,286047005.5,P
1624701535.1,286047005.5,N
1624701555.9,286047003.4,N
1624701575.7,286047003.7,N
1624701595.5,286047001.4,N
